Simultaneous Nadir Overpasses (SNOs) Predictions

Prediction of SNOs between GOES-17 and METOP-A Satellite Orbit:

Table of predicted SNOs for the next 14.0 days since TLE Epoch: 10/2/2020
Index Date Time (GOES-17) GOES-17 Lat,Lon METOP-A Lat,Lon Distance(km) Time Diff (sec)
1 10/04/2020 05:50:52 0.04,-137.21 -0.60,-140.11 330.53 80
2 10/05/2020 05:32:53 0.04,-137.21 0.48,-135.13 236.74 80
3 10/06/2020 17:49:05 -0.04,-137.21 0.54,-139.72 286.88 80
4 10/07/2020 17:31:06 -0.03,-137.21 -0.55,-134.74 279.93 80
5 10/09/2020 05:47:27 0.03,-137.19 -0.44,-139.38 249.40 80
6 10/10/2020 05:29:27 0.03,-137.18 0.65,-134.40 316.81 80
7 10/11/2020 17:45:40 -0.03,-137.17 0.37,-139.00 208.39 80
8 10/12/2020 17:27:40 -0.03,-137.16 -0.72,-134.02 357.46 80
9 10/14/2020 05:46:40 0.03,-137.13 -0.33,-138.65 172.94 80
10 10/15/2020 05:23:21 0.02,-137.12 0.76,-133.67 392.57 80
11 10/16/2020 17:42:13 -0.03,-137.10 0.26,-138.26 133.76 80
